sat.trackr.live / text

‹ back to catalog

SHIYAN-31

NORAD 65945 · 2025-227A

PAYLOAD ACTIVE UNKNOWN

§ Identity

Operator
Country
PRC
Launch date
2025-10-13
Launch site
JSC
Launch vehicle
Mass (kg)
RCS (m²)

External: N2YO · Heavens-Above · Gunter

§ Orbital elements

Epoch: 2026-05-25T03:30:26.921952Z

Period
94.51 min
Inclination
80.0027°
Eccentricity
0.0009038
Mean motion
15.23636440 rev/d
Perigee alt
488.7 km
Apogee alt
501.1 km
Semi-major
6,873.0 km
B*
1.9041e-4
RAAN
165.0773°
Arg perigee
254.0848°
Mean anomaly
105.9385°
Rev number
3,404

§ Raw data

SHIYAN-311 65945U 25227A   26145.14614493  .00004583  00000+0  19041-3 0  99942 65945  80.0027 165.0773 0009038 254.0848 105.9385 15.23636440 34044

JSON: /api/v1/satellites/65945 · /tle

For live sub-satellite position, see the globe view (requires WebGL).

§ Visibility from observer

Set your observer location to see the next 7 days of passes ≥ 10°. The values pass through the URL so the page stays shareable.

No JS? Fill the form by hand. The geolocation button needs JavaScript.